Flag for Hong Kong Weather past 2 weeks in Hong Kong, Hong Kong

Now
81 °F

Scattered clouds.


Feels Like: 83 °F
Forecast: 76 / 87 °F
Wind: 14 mph from North

Location: National Airport

Current Time: Sep 21, 2014 at 7:04:19 AM

Latest Report: Sep 21, 2014 at 6:30 AM


Visibility: N/A

Pressure: 29.68 "Hg

Humidity: 62%

Dew point: 66 °F

Location of Hong KongLocation

Historic Weather in Hong Kong — Graph

°F

Hong Kong temperature yesterday

Maximum temperature yesterday: 90 °F (at 12:00 AM)
Minimum temperature yesterday: 82 °F (at 9:30 PM)
Average temperature yesterday: 87 °F

Past Weeks' High & Low Weather Summary

 TemperatureHumidityPressure
High95 °F (Sep 7, 2:00 PM)94% (Sep 12, 5:30 AM)29.95 "Hg (Sep 12, 5:30 AM)
Low79 °F (Sep 12, 5:30 AM)52% (Sep 20, 4:00 PM)29.47 "Hg (Sep 16, 3:00 AM)
Average87 °F72%29.72 "Hg
* Reported Sep 6 6:00 AM — Sep 21 6:00 AM, Hong Kong, Weather by CustomWeather, © 2014

Note: Actual official high and low records may vary slightly from our data, if they occured in-between our weather recording intervals... More about our weather records

Advertising

Hong Kong weather history for previous 24 hours

 ConditionsComfort  
Time TempWeatherWind HumidityBarometerVisibility
6:00 AM
Sep 21
81 °FPassing clouds.13 mph62%29.65 "HgN/A
5:30 AM81 °FPassing clouds.10 mph62%29.65 "HgN/A
5:00 AM81 °FPassing clouds.14 mph62%29.65 "HgN/A
4:30 AM81 °FPassing clouds.14 mph62%29.65 "HgN/A
4:00 AM81 °FPassing clouds.14 mph62%29.65 "HgN/A
3:30 AM81 °FPassing clouds.14 mph66%29.65 "HgN/A
3:00 AM81 °FPassing clouds.14 mph66%29.65 "HgN/A
2:30 AM81 °FPassing clouds.13 mph66%29.65 "HgN/A
2:00 AM81 °FPassing clouds.14 mph66%29.68 "HgN/A
9:30 PM
Sep 20
82 °FPassing clouds.17 mph62%29.68 "HgN/A
9:00 PM84 °FPassing clouds.15 mph58%29.68 "HgN/A
8:30 PM86 °FPassing clouds.14 mph55%29.65 "HgN/A
8:00 PM84 °FPassing clouds.14 mph58%29.65 "HgN/A
7:30 PM86 °FPassing clouds.15 mph55%29.65 "HgN/A
7:00 PM86 °FPassing clouds.16 mph55%29.62 "HgN/A
6:30 PM86 °FPassing clouds.15 mph59%29.62 "HgN/A
6:00 PM86 °FPassing clouds.18 mph59%29.59 "HgN/A
5:30 PM88 °FPassing clouds.17 mph55%29.59 "HgN/A
5:00 PM88 °FPassing clouds.20 mph55%29.59 "HgN/A
4:30 PM88 °FScattered clouds.20 mph59%29.59 "HgN/A
4:00 PM90 °FScattered clouds.17 mph52%29.59 "HgN/A
3:30 PM90 °FScattered clouds.12 mph55%29.62 "HgN/A
3:00 PM90 °FScattered clouds.12 mph55%29.62 "HgN/A
2:30 PM90 °FPassing clouds.12 mph55%29.62 "HgN/A
2:00 PM90 °FPassing clouds.16 mph55%29.62 "HgN/A
1:30 PM88 °FPassing clouds.18 mph59%29.65 "HgN/A
1:00 PM88 °FPassing clouds.17 mph59%29.65 "HgN/A
12:30 PM88 °FPassing clouds.17 mph59%29.65 "HgN/A
12:00 PM88 °FPassing clouds.13 mph55%29.65 "HgN/A
11:30 AM88 °FPassing clouds.15 mph55%29.68 "HgN/A
11:00 AM88 °FPassing clouds.12 mph55%29.71 "HgN/A
10:30 AM88 °FPassing clouds.13 mph55%29.71 "HgN/A
10:00 AM86 °FPassing clouds.15 mph59%29.71 "HgN/A
9:00 AM86 °FPassing clouds.9 mph62%29.71 "HgN/A
8:30 AM86 °FPassing clouds.8 mph59%29.71 "HgN/A
8:00 AM84 °FPassing clouds.9 mph66%29.68 "HgN/A
7:30 AM84 °FPassing clouds.12 mph62%29.68 "HgN/A
7:00 AM84 °FPassing clouds.12 mph62%29.68 "HgN/A
Weather by CustomWeather, © 2014

See weather overviewHow to use our weather pages